Location: Góry Miechowskie
(50.3599°N, 20.1803°E)
Time: 01:30:21
(UTC+00:00)

Vanguard 2 - Pass Details

Date: 19 September 2024
Orbit: 552 x 2910 km, 32.9° (Epoch: 09 October)

Event Time Altitude Azimuth Distance (km) Brightness Sun altitude
Rises 03:37:05 0° 237° (WSW) 3,166 - -7.8°
Exits shadow 03:38:29 - 228° (SW) 2,814 9.9 -7.6°
Reaches altitude 10° 03:40:08 10° 215° (SW) 2,510 9.7 -7.4°
Maximum altitude 03:43:41 16° 178° (S) 2,433 10.0 -6.8°
Drops below altitude 10° 03:48:09 10° 143° (SE) 3,323 11.2 -6.1°
Sets 03:53:14 0° 126° (SE) 4,830 12.4 -5.3°
